Time,TemperatureF,DewpointF,PressureIn,WindDirection,WindDirectionDegrees,WindSpeedMPH,WindSpeedGustMPH,Humidity,HourlyPrecipIn,Conditions,Clouds,dailyrainin,SoftwareType,DateUTC
2013-01-01 00:00:00,38.5,14.4,29.81,WSW,252,3.0,3.0,37,0.00,,,0.00,Wunderground v.1.15,2013-01-01 05:00:00,
2013-01-01 00:10:00,38.5,12.5,29.80,WSW,252,1.0,7.0,34,0.00,,,0.00,Wunderground v.1.15,2013-01-01 05:10:00,
2013-01-01 00:19:00,39.6,11.4,29.80,West,271,3.0,7.0,31,0.00,,,0.00,Wunderground v.1.15,2013-01-01 05:19:00,
2013-01-01 00:30:00,40.6,12.3,29.79,West,273,3.0,3.0,31,0.00,,,0.00,Wunderground v.1.15,2013-01-01 05:30:00,
2013-01-01 00:40:00,40.3,12.7,29.79,West,274,3.0,7.0,32,0.00,,,0.00,Wunderground v.1.15,2013-01-01 05:40:00,
2013-01-01 00:50:00,40.5,11.4,29.78,WNW,284,5.0,5.0,30,0.00,,,0.00,Wunderground v.1.15,2013-01-01 05:50:00,
2013-01-01 00:59:00,40.4,14.2,29.77,WNW,284,4.0,4.0,34,0.00,,,0.00,Wunderground v.1.15,2013-01-01 05:59:00,
2013-01-01 01:09:00,40.4,14.9,29.77,WNW,284,4.0,4.0,35,0.00,,,0.00,Wunderground v.1.15,2013-01-01 06:09:00,
2013-01-01 01:19:00,39.4,14.6,29.76,WNW,284,0.0,7.0,36,0.00,,,0.00,Wunderground v.1.15,2013-01-01 06:19:00,
2013-01-01 01:30:00,38.7,14.6,29.76,WNW,284,0.0,7.0,37,0.00,,,0.00,Wunderground v.1.15,2013-01-01 06:30:00,
2013-01-01 01:40:00,38.6,15.7,29.76,WNW,284,1.0,1.0,39,0.00,,,0.00,Wunderground v.1.15,2013-01-01 06:40:00,
2013-01-01 01:50:00,38.8,12.8,29.76,WNW,284,2.0,7.0,34,0.00,,,0.00,Wunderground v.1.15,2013-01-01 06:50:00,
2013-01-01 02:00:00,39.0,15.5,29.77,WNW,284,2.0,7.0,38,0.00,,,0.00,Wunderground v.1.15,2013-01-01 07:00:00,
2013-01-01 02:10:00,38.6,16.3,29.77,WNW,283,4.0,7.0,40,0.00,,,0.00,Wunderground v.1.15,2013-01-01 07:10:00,
2013-01-01 02:20:00,39.1,15.0,29.78,WNW,284,6.0,6.0,37,0.00,,,0.00,Wunderground v.1.15,2013-01-01 07:20:00,
2013-01-01 02:30:00,39.2,16.3,29.77,West,265,6.0,7.0,39,0.00,,,0.00,Wunderground v.1.15,2013-01-01 07:30:00,
2013-01-01 02:39:00,39.6,18.4,29.77,WSW,254,6.0,7.0,42,0.00,,,0.00,Wunderground v.1.15,2013-01-01 07:39:00,
2013-01-01 02:49:00,40.0,17.0,29.77,West,265,6.0,7.0,39,0.00,,,0.00,Wunderground v.1.15,2013-01-01 07:49:00,
2013-01-01 02:59:00,39.7,19.0,29.77,WSW,247,6.0,7.0,43,0.00,,,0.00,Wunderground v.1.15,2013-01-01 07:59:00,
2013-01-01 03:10:00,39.2,19.1,29.77,West,266,4.0,8.0,44,0.00,,,0.00,Wunderground v.1.15,2013-01-01 08:10:00,
2013-01-01 03:20:00,39.1,22.0,29.76,WSW,240,6.0,7.0,50,0.00,,,0.00,Wunderground v.1.15,2013-01-01 08:20:00,
2013-01-01 03:30:00,39.2,23.0,29.76,WSW,246,6.0,6.0,52,0.00,,,0.00,Wunderground v.1.15,2013-01-01 08:30:00,
2013-01-01 03:40:00,39.8,24.0,29.76,West,281,6.0,8.0,53,0.00,,,0.00,Wunderground v.1.15,2013-01-01 08:40:00,
2013-01-01 03:49:00,40.2,24.4,29.76,West,269,6.0,9.0,53,0.00,,,0.00,Wunderground v.1.15,2013-01-01 08:49:00,
2013-01-01 04:00:00,40.8,26.3,29.75,West,273,8.0,8.0,56,0.00,,,0.00,Wunderground v.1.15,2013-01-01 09:00:00,
2013-01-01 04:10:00,40.8,27.6,29.73,West,278,6.0,6.0,59,0.00,,,0.00,Wunderground v.1.15,2013-01-01 09:10:00,
2013-01-01 04:20:00,40.8,27.6,29.76,West,273,7.0,7.0,59,0.00,,,0.00,Wunderground v.1.15,2013-01-01 09:20:00,
2013-01-01 04:30:00,40.8,27.6,29.75,West,274,7.0,10.0,59,0.00,,,0.00,Wunderground v.1.15,2013-01-01 09:30:00,
2013-01-01 04:40:00,40.8,28.8,29.75,West,270,9.0,9.0,62,0.00,,,0.00,Wunderground v.1.15,2013-01-01 09:40:00,
2013-01-01 04:50:00,40.8,28.8,29.74,West,278,9.0,9.0,62,0.00,,,0.00,Wunderground v.1.15,2013-01-01 09:50:00,
2013-01-01 04:59:00,40.7,29.1,29.74,West,277,9.0,10.0,63,0.00,,,0.00,Wunderground v.1.15,2013-01-01 09:59:00,
2013-01-01 05:09:00,40.8,29.9,29.74,West,273,10.0,10.0,65,0.00,,,0.00,Wunderground v.1.15,2013-01-01 10:09:00,
2013-01-01 05:20:00,40.6,30.5,29.74,West,260,8.0,8.0,67,0.00,,,0.00,Wunderground v.1.15,2013-01-01 10:20:00,
2013-01-01 05:29:00,40.2,30.5,29.74,SW,229,7.0,7.0,68,0.00,,,0.00,Wunderground v.1.15,2013-01-01 10:29:00,
2013-01-01 05:39:00,40.2,31.9,29.74,WSW,252,8.0,9.0,72,0.00,,,0.00,Wunderground v.1.15,2013-01-01 10:39:00,
2013-01-01 05:50:00,41.0,34.0,29.72,WSW,252,9.0,9.0,76,0.00,,,0.00,Wunderground v.1.15,2013-01-01 10:50:00,
2013-01-01 06:00:00,41.9,35.5,29.72,West,267,11.0,11.0,78,0.00,,,0.00,Wunderground v.1.15,2013-01-01 11:00:00,
2013-01-01 06:09:00,42.7,37.0,29.72,West,267,13.0,18.0,80,0.00,,,0.00,Wunderground v.1.15,2013-01-01 11:09:00,
2013-01-01 06:19:00,43.1,37.7,29.73,WNW,286,13.0,13.0,81,0.00,,,0.00,Wunderground v.1.15,2013-01-01 11:19:00,
2013-01-01 06:30:00,42.9,37.8,29.74,West,276,10.0,11.0,82,0.00,,,0.00,Wunderground v.1.15,2013-01-01 11:30:00,
2013-01-01 06:40:00,43.2,38.4,29.73,West,278,12.0,12.0,83,0.00,,,0.00,Wunderground v.1.15,2013-01-01 11:40:00,
2013-01-01 06:50:00,43.7,38.9,29.73,West,277,15.0,16.0,83,0.00,,,0.00,Wunderground v.1.15,2013-01-01 11:50:00,
2013-01-01 07:00:00,43.7,38.9,29.73,WNW,293,12.0,12.0,83,0.00,,,0.00,Wunderground v.1.15,2013-01-01 12:00:00,
2013-01-01 07:10:00,43.7,39.2,29.73,WNW,286,10.0,14.0,84,0.00,,,0.00,Wunderground v.1.15,2013-01-01 12:10:00,
2013-01-01 07:20:00,43.8,39.3,29.74,West,273,13.0,19.0,84,0.00,,,0.00,Wunderground v.1.15,2013-01-01 12:20:00,
2013-01-01 07:30:00,44.0,39.8,29.72,West,271,14.0,14.0,85,0.00,,,0.00,Wunderground v.1.15,2013-01-01 12:30:00,
2013-01-01 07:40:00,44.1,39.9,29.73,West,277,12.0,12.0,85,0.00,,,0.00,Wunderground v.1.15,2013-01-01 12:40:00,
2013-01-01 07:50:00,44.5,40.3,29.74,West,277,13.0,18.0,85,0.00,,,0.00,Wunderground v.1.15,2013-01-01 12:50:00,
2013-01-01 08:00:00,44.8,40.6,29.74,WNW,284,15.0,15.0,85,0.00,,,0.00,Wunderground v.1.15,2013-01-01 13:00:00,
2013-01-01 08:10:00,45.0,40.8,29.73,West,279,15.0,18.0,85,0.00,,,0.00,Wunderground v.1.15,2013-01-01 13:10:00,
2013-01-01 08:20:00,45.1,41.2,29.74,West,276,14.0,14.0,86,0.00,,,0.00,Wunderground v.1.15,2013-01-01 13:20:00,
2013-01-01 08:30:00,45.3,41.1,29.74,WNW,289,17.0,17.0,85,0.00,,,0.00,Wunderground v.1.15,2013-01-01 13:30:00,
2013-01-01 08:40:00,45.4,41.2,29.72,West,281,15.0,15.0,85,0.00,,,0.00,Wunderground v.1.15,2013-01-01 13:40:00,
2013-01-01 08:50:00,45.8,41.2,29.73,West,268,13.0,13.0,84,0.00,,,0.00,Wunderground v.1.15,2013-01-01 13:50:00,
2013-01-01 09:00:00,45.8,41.2,29.72,WSW,254,12.0,12.0,84,0.00,,,0.00,Wunderground v.1.15,2013-01-01 14:00:00,
2013-01-01 09:10:00,46.0,41.7,29.71,West,265,11.0,11.0,85,0.00,,,0.00,Wunderground v.1.15,2013-01-01 14:10:00,
2013-01-01 09:20:00,46.3,41.7,29.71,WSW,253,10.0,10.0,84,0.00,,,0.00,Wunderground v.1.15,2013-01-01 14:20:00,
2013-01-01 09:30:00,46.8,41.9,29.73,NW,309,8.0,8.0,83,0.00,,,0.00,Wunderground v.1.15,2013-01-01 14:30:00,
2013-01-01 09:40:00,46.7,41.8,29.73,WNW,284,7.0,9.0,83,0.00,,,0.00,Wunderground v.1.15,2013-01-01 14:40:00,
2013-01-01 09:50:00,47.0,42.1,29.71,West,266,13.0,13.0,83,0.00,,,0.00,Wunderground v.1.15,2013-01-01 14:50:00,
2013-01-01 10:00:00,47.1,42.2,29.71,West,262,11.0,11.0,83,0.00,,,0.00,Wunderground v.1.15,2013-01-01 15:00:00,
2013-01-01 10:10:00,47.2,42.3,29.70,West,269,10.0,10.0,83,0.00,,,0.00,Wunderground v.1.15,2013-01-01 15:10:00,
2013-01-01 10:20:00,47.0,42.1,29.69,SSW,213,6.0,7.0,83,0.00,,,0.00,Wunderground v.1.15,2013-01-01 15:20:00,
2013-01-01 10:30:00,46.5,41.6,29.69,SW,232,5.0,7.0,83,0.00,,,0.00,Wunderground v.1.15,2013-01-01 15:30:00,
2013-01-01 10:40:00,47.3,41.8,29.68,West,263,7.0,7.0,81,0.00,,,0.00,Wunderground v.1.15,2013-01-01 15:40:00,
2013-01-01 10:50:00,48.0,41.8,29.69,NW,319,6.0,6.0,79,0.00,,,0.00,Wunderground v.1.15,2013-01-01 15:50:00,
2013-01-01 11:00:00,48.3,42.1,29.70,WNW,301,5.0,5.0,79,0.00,,,0.00,Wunderground v.1.15,2013-01-01 16:00:00,
2013-01-01 11:10:00,48.6,42.0,29.69,West,276,7.0,18.0,78,0.00,,,0.00,Wunderground v.1.15,2013-01-01 16:10:00,
2013-01-01 11:20:00,48.9,42.0,29.68,West,269,14.0,14.0,77,0.00,,,0.00,Wunderground v.1.15,2013-01-01 16:20:00,
2013-01-01 11:30:00,49.2,42.6,29.67,WNW,282,13.0,13.0,78,0.00,,,0.00,Wunderground v.1.15,2013-01-01 16:30:00,
2013-01-01 11:40:00,49.4,42.5,29.66,West,277,14.0,14.0,77,0.00,,,0.00,Wunderground v.1.15,2013-01-01 16:40:00,
2013-01-01 11:50:00,49.5,42.6,29.68,NNW,335,10.0,10.0,77,0.00,,,0.00,Wunderground v.1.15,2013-01-01 16:50:00,
2013-01-01 12:00:00,49.4,42.5,29.67,WNW,287,10.0,13.0,77,0.00,,,0.00,Wunderground v.1.15,2013-01-01 17:00:00,
2013-01-01 12:10:00,49.2,42.6,29.66,WNW,284,12.0,12.0,78,0.00,,,0.00,Wunderground v.1.15,2013-01-01 17:10:00,
2013-01-01 12:20:00,49.0,42.4,29.65,West,271,11.0,12.0,78,0.00,,,0.00,Wunderground v.1.15,2013-01-01 17:20:00,
2013-01-01 12:30:00,48.9,42.3,29.63,West,263,11.0,11.0,78,0.00,,,0.00,Wunderground v.1.15,2013-01-01 17:30:00,
2013-01-01 12:40:00,49.1,42.5,29.62,WSW,239,11.0,11.0,78,0.00,,,0.00,Wunderground v.1.15,2013-01-01 17:40:00,
2013-01-01 12:50:00,49.4,42.1,29.61,WSW,258,11.0,14.0,76,0.00,,,0.00,Wunderground v.1.15,2013-01-01 17:50:00,
2013-01-01 13:00:00,49.7,42.1,29.62,WNW,287,10.0,10.0,75,0.00,,,0.00,Wunderground v.1.15,2013-01-01 18:00:00,
2013-01-01 13:10:00,50.1,42.1,29.62,West,277,7.0,8.0,74,0.00,,,0.00,Wunderground v.1.15,2013-01-01 18:10:00,
2013-01-01 13:20:00,50.2,42.6,29.62,West,279,7.0,12.0,75,0.00,,,0.00,Wunderground v.1.15,2013-01-01 18:20:00,
2013-01-01 13:30:00,50.3,42.0,29.62,West,265,12.0,15.0,73,0.00,,,0.00,Wunderground v.1.15,2013-01-01 18:30:00,
2013-01-01 13:40:00,49.7,42.1,29.61,West,268,14.0,14.0,75,0.00,,,0.00,Wunderground v.1.15,2013-01-01 18:40:00,
2013-01-01 13:50:00,49.2,42.3,29.62,West,279,13.0,13.0,77,0.00,,,0.00,Wunderground v.1.15,2013-01-01 18:50:00,
2013-01-01 14:00:00,48.9,42.7,29.61,WSW,253,11.0,11.0,79,0.00,,,0.00,Wunderground v.1.15,2013-01-01 19:00:00,
2013-01-01 15:20:00,48.7,42.5,29.62,West,275,14.0,14.0,79,0.00,,,0.00,Wunderground v.1.15,2013-01-01 20:20:00,
2013-01-01 15:30:00,48.5,42.3,29.61,West,263,10.0,10.0,79,0.00,,,0.00,Wunderground v.1.15,2013-01-01 20:30:00,
2013-01-01 15:40:00,48.4,42.5,29.61,West,260,11.0,11.0,80,0.00,,,0.00,Wunderground v.1.15,2013-01-01 20:40:00,
2013-01-01 15:50:00,48.2,42.3,29.61,West,275,9.0,11.0,80,0.00,,,0.00,Wunderground v.1.15,2013-01-01 20:50:00,
2013-01-01 16:00:00,48.5,42.3,29.61,West,272,9.0,9.0,79,0.00,,,0.00,Wunderground v.1.15,2013-01-01 21:00:00,
2013-01-01 16:10:00,48.6,42.0,29.61,WSW,257,8.0,10.0,78,0.00,,,0.00,Wunderground v.1.15,2013-01-01 21:10:00,
2013-01-01 16:20:00,48.9,42.0,29.62,West,268,10.0,10.0,77,0.00,,,0.00,Wunderground v.1.15,2013-01-01 21:20:00,
2013-01-01 16:30:00,48.9,41.7,29.61,West,264,8.0,10.0,76,0.00,,,0.00,Wunderground v.1.15,2013-01-01 21:30:00,
2013-01-01 16:40:00,49.0,41.8,29.61,West,263,9.0,9.0,76,0.00,,,0.00,Wunderground v.1.15,2013-01-01 21:40:00,
2013-01-01 16:50:00,48.8,41.6,29.62,WNW,300,8.0,8.0,76,0.00,,,0.00,Wunderground v.1.15,2013-01-01 21:50:00,
2013-01-01 17:00:00,48.7,41.8,29.62,West,271,8.0,9.0,77,0.00,,,0.00,Wunderground v.1.15,2013-01-01 22:00:00,
2013-01-01 17:10:00,48.0,41.8,29.62,West,269,9.0,12.0,79,0.00,,,0.00,Wunderground v.1.15,2013-01-01 22:10:00,
2013-01-01 17:20:00,47.7,41.8,29.62,West,263,11.0,11.0,80,0.00,,,0.00,Wunderground v.1.15,2013-01-01 22:20:00,
2013-01-01 17:30:00,47.5,42.0,29.62,West,264,12.0,12.0,81,0.00,,,0.00,Wunderground v.1.15,2013-01-01 22:30:00,
2013-01-01 17:40:00,47.3,42.1,29.62,WNW,285,11.0,11.0,82,0.00,,,0.00,Wunderground v.1.15,2013-01-01 22:40:00,
2013-01-01 17:50:00,47.2,42.0,29.62,WNW,282,10.0,10.0,82,0.00,,,0.00,Wunderground v.1.15,2013-01-01 22:50:00,
2013-01-01 18:00:00,47.0,41.8,29.62,WNW,284,8.0,10.0,82,0.00,,,0.00,Wunderground v.1.15,2013-01-01 23:00:00,
2013-01-01 18:10:00,46.9,41.7,29.62,West,269,9.0,9.0,82,0.00,,,0.00,Wunderground v.1.15,2013-01-01 23:10:00,
2013-01-01 18:20:00,46.7,41.8,29.63,West,261,8.0,12.0,83,0.00,,,0.00,Wunderground v.1.15,2013-01-01 23:20:00,
2013-01-01 18:30:00,46.6,41.7,29.63,West,273,9.0,9.0,83,0.00,,,0.00,Wunderground v.1.15,2013-01-01 23:30:00,
2013-01-01 18:40:00,46.4,41.5,29.63,WNW,283,7.0,11.0,83,0.00,,,0.00,Wunderground v.1.15,2013-01-01 23:40:00,
2013-01-01 18:50:00,46.4,41.5,29.64,WNW,282,9.0,9.0,83,0.00,,,0.00,Wunderground v.1.15,2013-01-01 23:50:00,
2013-01-01 19:00:00,46.5,41.6,29.64,WNW,284,7.0,7.0,83,0.00,,,0.00,Wunderground v.1.15,2013-01-02 00:00:00,
2013-01-01 19:10:00,46.4,41.8,29.64,West,280,7.0,7.0,84,0.00,,,0.00,Wunderground v.1.15,2013-01-02 00:10:00,
2013-01-01 19:20:00,46.3,41.7,29.64,West,276,6.0,6.0,84,0.00,,,0.00,Wunderground v.1.15,2013-01-02 00:20:00,
2013-01-01 19:30:00,46.1,41.8,29.64,West,264,6.0,7.0,85,0.00,,,0.00,Wunderground v.1.15,2013-01-02 00:30:00,
2013-01-01 19:40:00,46.0,41.7,29.64,WNW,302,8.0,8.0,85,0.00,,,0.00,Wunderground v.1.15,2013-01-02 00:40:00,
2013-01-01 19:50:00,45.6,41.4,29.63,West,274,7.0,7.0,85,0.00,,,0.00,Wunderground v.1.15,2013-01-02 00:50:00,
2013-01-01 20:00:00,45.3,41.1,29.63,West,269,7.0,7.0,85,0.00,,,0.00,Wunderground v.1.15,2013-01-02 01:00:00,
2013-01-01 20:10:00,44.9,41.0,29.63,West,273,7.0,7.0,86,0.00,,,0.00,Wunderground v.1.15,2013-01-02 01:10:00,
2013-01-01 20:20:00,44.7,40.8,29.64,West,268,8.0,8.0,86,0.00,,,0.00,Wunderground v.1.15,2013-01-02 01:20:00,
2013-01-01 20:30:00,44.4,40.5,29.63,West,269,7.0,7.0,86,0.00,,,0.00,Wunderground v.1.15,2013-01-02 01:30:00,
2013-01-01 20:40:00,44.0,40.4,29.65,West,264,5.0,7.0,87,0.00,,,0.00,Wunderground v.1.15,2013-01-02 01:40:00,
2013-01-01 20:50:00,43.6,40.6,29.64,West,269,5.0,5.0,89,0.00,,,0.00,Wunderground v.1.15,2013-01-02 01:50:00,
2013-01-01 21:00:00,43.2,40.5,29.64,WSW,258,4.0,7.0,90,0.00,,,0.01,Wunderground v.1.15,2013-01-02 02:00:00,
2013-01-01 21:10:00,42.8,40.4,29.64,WSW,251,5.0,7.0,91,0.05,,,0.02,Wunderground v.1.15,2013-01-02 02:10:00,
2013-01-01 21:20:00,42.7,40.5,29.63,WSW,252,5.0,7.0,92,0.05,,,0.03,Wunderground v.1.15,2013-01-02 02:20:00,
2013-01-01 21:30:00,42.7,40.8,29.63,WSW,254,4.0,4.0,93,0.05,,,0.03,Wunderground v.1.15,2013-01-02 02:30:00,
2013-01-01 21:40:00,42.6,40.7,29.64,WSW,256,3.0,3.0,93,0.04,,,0.04,Wunderground v.1.15,2013-01-02 02:40:00,
2013-01-01 21:50:00,42.4,40.5,29.63,WSW,256,3.0,3.0,93,0.04,,,0.04,Wunderground v.1.15,2013-01-02 02:50:00,
2013-01-01 22:00:00,42.3,40.7,29.63,WSW,256,3.0,7.0,94,0.10,,,0.06,Wunderground v.1.15,2013-01-02 03:00:00,
2013-01-01 22:10:00,42.1,40.5,29.64,West,268,4.0,7.0,94,0.05,,,0.06,Wunderground v.1.15,2013-01-02 03:10:00,
2013-01-01 22:20:00,42.0,40.4,29.63,West,268,4.0,4.0,94,0.04,,,0.07,Wunderground v.1.15,2013-01-02 03:20:00,
2013-01-01 22:30:00,41.9,40.6,29.64,West,268,4.0,7.0,95,0.04,,,0.07,Wunderground v.1.15,2013-01-02 03:30:00,
2013-01-01 22:40:00,41.9,40.6,29.63,West,268,4.0,4.0,95,0.04,,,0.08,Wunderground v.1.15,2013-01-02 03:40:00,
2013-01-01 22:50:00,41.5,40.2,29.63,West,268,3.0,3.0,95,0.04,,,0.09,Wunderground v.1.15,2013-01-02 03:50:00,
2013-01-01 23:00:00,41.4,40.1,29.62,West,267,3.0,7.0,95,0.08,,,0.10,Wunderground v.1.15,2013-01-02 04:00:00,
2013-01-01 23:10:00,41.7,40.6,29.63,West,265,5.0,5.0,96,0.00,,,0.10,Wunderground v.1.15,2013-01-02 04:10:00,
2013-01-01 23:20:00,41.8,40.5,29.62,West,266,4.0,7.0,95,0.00,,,0.10,Wunderground v.1.15,2013-01-02 04:20:00,
2013-01-01 23:30:00,41.7,40.4,29.62,West,266,4.0,7.0,95,0.00,,,0.11,Wunderground v.1.15,2013-01-02 04:30:00,
2013-01-01 23:40:00,41.7,40.6,29.61,West,266,3.0,7.0,96,0.06,,,0.12,Wunderground v.1.15,2013-01-02 04:40:00,
2013-01-01 23:50:00,41.6,40.3,29.61,West,266,4.0,7.0,95,0.08,,,0.14,Wunderground v.1.15,2013-01-02 04:50:00,